www.pogodaiklimat.ru

Погода и климат >> Архив погоды >> Узбекистан >> Зарафшан


ПОГОДА в Зарафшане

  • Прогноз погоды в Зарафшане
  • Монитор погоды в Зарафшане

АРХИВ ПОГОДЫ в Зарафшане

Время (UTC), дата Ветер
(напр.,м/с)
 
Видим.   Явления Облачность Т
(С)
Тd
(С)
f
(%)
Тe
(С)
Тes
(С)
Комфортность P
(гПа)
Po
(гПа)
Тmin
(С)
Tmax
(С)
R
(мм)
R24
(мм)
S
(см)
03 10.06 10 км ясно +21.2 +5.0 35 1018.7 969.9
06 10.06 10 км 3/0
[Ac cast]
+23.0 +5.0 31 1018.7 969.6 +17.6
09 10.06 10 км 8/8 1000 м
[Cu med, cong]
+24.6 +5.3 29 1019.3 970.2
12 10.06 10 км 6/6 1000 м
[Cu med, cong]
+26.0 +5.3 26 1018.1 969.1
15 10.06 10 км 6/3 1000 м
[Cu med, cong Ac cast]
+23.6 +3.6 27 1018.1 969.3 +26.0
18 10.06 н/о 3/0
[Ac cast]
+21.2 +4.5 33 1019.9 970.9 +26.0
21 10.06 н/о ясно +15.8 +1.9 39 1019.9 970.6
00 11.06 н/о ясно +13.0 +1.3 45 1019.3 970.4
03 11.06 10 км ясно +21.8 +5.9 36 1019.9 970.8
06 11.06 10 км ясно +25.0 +5.9 29 1020.5 971.3 +13.0
09 11.06 10 км ясно +27.0 +2.3 20 1019.9 970.7
12 11.06 10 км ясно +28.2 +0.6 17 1018.1 969.1
15 11.06 10 км ясно +27.0 +1.1 19 1017.5 968.5 +28.2
18 11.06 н/о ясно +23.2 +2.1 25 1017.5 968.8 +28.2
21 11.06 н/о ясно +19.4 +1.9 31 1016.8 968.1
00 12.06 н/о ясно +16.0 +2.1 39 1016.2 967.4
03 12.06 10 км ясно +24.2 +6.4 32 1016.8 968.2
06 12.06 10 км ясно +29.0 +3.2 19 1016.8 967.8 +16.0
09 12.06 10 км ясно +31.4 +1.7 15 1015.6 966.6
12 12.06 10 км ясно +32.2 +0.2 13 1013.8 965.2
15 12.06 10 км ясно +30.2 0.0 14 1013.2 964.4 +32.2
18 12.06 н/о ясно +23.6 -1.4 19 1013.2 964.6 +32.2
21 12.06 н/о ясно +21.0 -1.2 23 1012.6 963.9
00 13.06 н/о ясно +19.7 -0.5 26 1012.0 963.0
03 13.06 10 км ясно +27.4 +2.7 20 1012.6 963.7
06 13.06 10 км ясно +30.6 +1.3 15 1012.0 963.4 +19.7
12 13.06 10 км 4/0
[Ac trans]
+34.2 +2.9 14 1009.1 960.3
15 13.06 10 км 4/0
[Ac trans]
+32.3 +6.8 20 1007.9 959.4 +34.2
18 13.06 н/о 5/0
[Ac trans]
+26.2 +5.3 26 1008.5 959.7 +34.2
21 13.06 н/о 4/0
[Ac trans]
+25.3 +5.0 27 1007.9 959.1
00 14.06 н/о 3/0
[Ci fib]
+24.0 +4.6 28 1007.9 959.0
03 14.06 10 км 4/0
[Cc]
+29.8 +1.9 17 1007.9 959.1
06 14.06 10 км 5/0
[Cc]
+34.4 +3.2 14 1007.9 959.2 +24.0
09 14.06 10 км 6/0
[Ac cast]
+34.2 +2.9 14 1007.3 958.5
12 14.06 10 км 9/8 1000 м
[Cu med, cong Ac cuf]
+34.4 +1.7 13 1006.7 958.3
15 14.06 10 км 8/0
[Ac cuf Cc]
+33.4 -3.0 10 1006.7 958.0 +34.4
18 14.06 н/о 8/0
[Ac cuf]
+30.0 +2.3 17 1006.7 958.0 +34.4
21 14.06 н/о 8/0
[Ac cuf]
+27.6 +5.8 25 1007.9 959.0
00 15.06 н/о 10/10 1000 м
[Sc]
+26.4 +5.7 27 1008.5 959.8
03 15.06 10 км ясно +28.0 +4.6 22 1008.5 959.8
06 15.06 10 км ясно +30.0 +3.8 19 1009.7 961.1 +26.4
09 15.06 10 км ясно +30.6 +1.3 15 1009.7 961.2
12 15.06 10 км ясно +31.0 +0.6 14 1009.7 961.2
15 15.06 10 км ясно +28.8 +1.9 18 1010.4 961.4 +31.0
18 15.06 н/о ясно +24.6 +2.7 24 1010.4 961.6 +31.0
00 16.06 н/о ясно +18.2 +1.3 32 1009.7 961.3
03 16.06 10 км ясно +23.2 -0.2 21 1012.0 963.3
09 16.06 10 км ясно +28.0 +0.9 17 1012.6 964.0

 

Местоположение метеостанции Зарафшан (Навоийская область, Узбекистан): широта 41.60 долгота 64.30 высота над уровнем моря 420 м.

В архиве по умолчанию представлена погода в Зарафшане за последнюю неделю. Архивные данные за месяц целиком и за предыдущие месяцы, начиная с января 2011 года, Вы можете получить, выбрав интересующий диапазон дат из раскрывающегося списка и нажав кнопку "Ввод!".


*Определитесь, кто Вы:
робот инопланетянин человек

Внимание! Время в таблицах - всемирное. Для получения местного времени необходимо прибавить поправку, которая равна 5 ч.

Смотрите также архив погоды в соседних городах и на ближайших метеорологических станциях:

Погода в Тамдыбулаке (Навоийская область, Узбекистан) (30 км)
Погода в Учкудуке (Навоийская область, Узбекистан) (75 км)
Погода в Машикудуке (Навоийская область, Узбекистан) (102 км)
Погода в Айякагитме (Узбекистан) (103 км)
Погода в Джангельды (Бухарская область, Узбекистан) (116 км)
Погода в Бузаубае (Хорезмская область, Узбекистан) (153 км)
Погода в Нурате (Навоийская область, Узбекистан) (164 км)
Погода в Акбайтале (Навоийская область, Узбекистан) (172 км)
Погода в Навои (Навоийская область, Узбекистан) (186 км)
Погода в Бухаре (Бухарская область, Узбекистан) (211 км)

Пояснения к столбцам:

Ветер - указаны скорость ветра в м/с - средняя за 10 мин, порывы в срок и между сроками (в фигурных скобках) и направление, откуда дует ветер: С - северный, СВ - северо-восточный, В - восточный, ЮВ - юго-восточный, Ю - южный, ЮЗ - юго-западный, З - западный, СЗ - северо-западный.
Видимость - горизонтальная дальность видимости в метрах или километрах. При видимости от 1 до 10 км при отсутствии осадков обычно наблюдается дымка, при ухудшении видимости до 1 км и менее - туман. В сухую погоду видимость может ухудшаться дымом, пылью или мглою.
Явления - указаны атмосферные явления, наблюдавшиеся в срок или в последний час перед сроком; фигурными скобками обозначены явления, наблюдавшиеся между сроками (за 1-3 часа до срока); квадратными скобками обозначены град или гололедные отложения с указанием их диаметра в мм.
Облачность - указаны через наклонную черту общая и нижняя облачность в баллах и высота нижней границы облаков в метрах; квадратными скобками обозначены формы облаков: Ci - перистые, Cs - перисто-слоистые, Cc - перисто-кучевые, Ac - высококучевые, As - высокослоистые, Sc - слоисто-кучевые, Ns - слоисто-дождевые, Cu - кучевые, Cb - кучево-дождевые. Подробнее классификацию облаков см. в Атласе облаков (PDF).
T - Температура воздуха - температура, измеренная на высоте 2 м над землей.
Td - Температура точки росы - температура, при понижении до которой содержащийся в воздухе водяной пар достигнет насыщения.
f - Относительная влажность воздуха - влажноcть воздуха, измеренная на высоте 2 м над землей.
Te - Эффективная температура - температура, которую ощущает одетый по сезону человек в тени. Характеристика душности погоды. При расчете учитывается влияние влажности воздуха и скорости ветра на теплоощущения человека.
Tes - Эффективная температура на солнце - температура, которую ощущает человек, с поправкой на солнечный нагрев. Характеристика знойности погоды. Зависит от высоты солнца над горизонтом, облачности и скорости ветра. Ночью, в пасмурную погоду, а также при ветре 12 м/с и более поправка равна нулю.
P - Атмосферное давление - приведенное к уровню моря атмосферное давление.
Po - Атмосферное давление - измеренное на уровне метеостанции атмосферное давление.
Tmin - Минимальная температура - минимум температуры воздуха на высоте 2 м над землей.
Tmax - Максимальная температура - максимум температуры воздуха на высоте 2 м над землей.
R - Количество осадков - Количество выпавших осадков за период времени, мм. При наведении курсора мыши на число - период времени, за который выпало указанное количество осадков.
R24 - Количество осадков - Количество выпавших осадков за 24 часа, мм.
S - Снежный покров - Высота снежного покрова, см. При наведении курсора мыши на число - состояние снежного покрова и степень покрытия местности в баллах.